LEMUR-2-ROBMOORE

Last updated on Wed Feb 14 2018 16:20:43 GMT+0000 (Coordinated Universal Time)

1 42754U 17019D 18045.25601836 .00001225 00000-0 56192-4 0 9996 2 42754 51.6421 320.2922 0011014 127.6562 232.5419 15.28527432 38285
UTC large
Height (km)
Speed (km/s)
/
Latitude / Longitude
Inclination (degrees)
Orbital Period (minutes)
Azimuth
Elevation
Range (km)
Doppler Factor

Next 0 passes for location: London (51.5072 / 0.1276)

Sorry there are no passes over London.